Regional Weather Roundup
Issued by NWS Wilmington, NC

Home | Current Version | Previous Version | Text Only | Print | Product List | Glossary On
Versions: 1 2 3 4 5 6 7 8 9 10 11 12 13 14 15 16 17 18 19 20 21 22 23 24 25 26 27 28 29 30 31 32 33 34 35 36 37 38 39 40 41 42 43 44 45 46 47 48 49 50
000
ASUS42 KILM 261510
RWRILM
RWRILM
REGIONAL HOURLY WEATHER ROUNDUP
NATIONAL WEATHER SERVICE WILMINGTON NC
1000 AM EST MON JAN 26 2015

NOTE: "FAIR" INDICATES FEW OR NO CLOUDS BELOW 12,000 FEET WITH NO
SIGNIFICANT WEATHER AND/OR OBSTRUCTIONS TO VISIBILITY.

...............WFO WILMINGTON COUNTY WARNING AREA...............

......COASTAL NC AND SC COUNTIES......

CITY           SKY/WX    TMP DP  RH WIND       PRES   REMARKS
WILMINGTON     CLOUDY    49  45  86 W9        29.66R
SOUTHPORT      CLOUDY    51  45  80 W9        29.66F
N MYRTLE BEACH MOSUNNY   51  44  77 W10       29.66S
MYRTLE BEACH   SUNNY     54  43  66 W14       29.69S

......INLAND NC AND SC COUNTIES.......

CITY           SKY/WX    TMP DP  RH WIND       PRES   REMARKS
LUMBERTON      MOSUNNY   51  42  71 W12       29.66S
ELIZABETHTOWN  CLOUDY    46  44  93 W3        29.66R
WHITEVILLE     MOSUNNY   49  43  80 W6        29.66S
FLORENCE       SUNNY     51  40  65 W13       29.66F
DARLINGTON     MOSUNNY   48  39  71 W8        29.67S

....................REST OF NORTH CAROLINA......................

.........EASTERN NC.........

CITY           SKY/WX    TMP DP  RH WIND       PRES   REMARKS
CAPE HATTERAS  CLOUDY    51  46  83 CALM      29.64F
JACKSONVILLE   PTSUNNY   46  43  87 SW5       29.67R
MOREHEAD CITY  CLOUDY    47  45  93 CALM      29.67S
KENANSVILLE    MOSUNNY   42  41  95 CALM      29.67R
NEW BERN       CLOUDY    47  42  83 CALM      29.67S
ELIZABETH CITY CLOUDY    46  42  86 NW5       29.68F

.........CENTRAL NC.........

CITY           SKY/WX    TMP DP  RH WIND       PRES   REMARKS
RALEIGH DURHAM PTSUNNY   44  41  89 NE5       29.64F
ROCKY MOUNT    LGT RAIN  44  39  82 NE10      29.65F
ROANOKE RAPIDS NOT AVBL
FAYETTEVILLE   CLOUDY    46  41  82 CALM      29.65F
HOFFMAN        LGT RAIN  43  41  93 NE1       29.68R

.........WESTERN NC.........

CITY           SKY/WX    TMP DP  RH WIND       PRES   REMARKS
CHARLOTTE      PTSUNNY   44  34  67 W5        29.66S
GREENSBORO     CLOUDY    41  35  79 N6        29.65R
HICKORY        NOT AVBL
BOONE          NOT AVBL
ASHEVILLE      NOT AVBL

.....................REST OF SOUTH CAROLINA.....................

.........EASTERN SC.........

CITY           SKY/WX    TMP DP  RH WIND       PRES   REMARKS
CHARLESTON     MOSUNNY   53  42  66 W13       29.70F
BEAUFORT MCAS  MOSUNNY   52  43  71 W16G22    29.73S
HILTON HEAD    MOSUNNY   52  43  71 W14G25    29.76R

.........CENTRAL SC.........

CITY           SKY/WX    TMP DP  RH WIND       PRES   REMARKS
COLUMBIA       MOSUNNY   52  41  66 W15       29.67F
ORANGEBURG     SUNNY     50  40  68 W13       29.69F
SUMTER SHAW    SUNNY     49  41  74 W8        29.65F

.........WESTERN SC.........

CITY           SKY/WX    TMP DP  RH WIND       PRES   REMARKS
GREENVILLE     NOT AVBL
ROCK HILL      CLOUDY    47  37  68 VRB5      29.65F
ANDERSON       CLOUDY    47  37  68 W17G24    29.70R
CLEMSON        NOT AVBL
GREENWOOD      MOSUNNY   49  39  68 W12G22    29.69S


...................COASTAL AND OFFSHORE REPORTS..................

................LOCAL PIERS AND NC RESERVE................


STATION/POSITION TIME  SKY/WX   TEMP    WIND        PRES    VSBY
                                AIR SEA DIR/SP/G
                 (UTC)          (F)     (DEG/KT/KT) (MB)    (MI)
JOHNY MRCER PIER 1500            50 53  260/  9/ 13 1003.8S
NC RESRV MASNBRO 1400            49     260/  2     1005.0S
OCEAN CREST PIER 1500            51 52  230/ 19/ 20 1003.4S
SPRINGMAID  PIER 1500            51 50  260/  9/ 14 1004.5F


................COASTAL AND OFFSHORE BUOYS................


STATION/POSITION TIME  SKY/WX   TEMP    WIND        PRES    VSBY
                                AIR SEA DIR/SP/G
                 (UTC)          (F)     (DEG/KT/KT) (MB)    (MI)
DIMNDSHOAL 41025 1500            58 70  320/ 10/ 14 1003.9F
WVE H/P(F/S)=  3/ 8 WND WVE H/P(F/S)=  2/ 4 SWL H/P/D(F/S/D)=  3/ 50/ 8

CAPE LOOKOUT     1400            49     350/  8/  8 1004.4F
ONSLOW BAY 41036 NOT AVBL
5 WRITEBCH 41038 1400            51 51  290/ 10/ 14 1003.2F
MASONBORO  41110 1500               51                N/A
WVE H/P(F/S)=  3/ 6 WND WVE H/P(F/S)=  3/ 6

WILM HARBR 41108 1500               53                N/A
WVE H/P(F/S)=  5/ 8 WND WVE H/P(F/S)=  5/ 8

27WRITEBCH 41037 NOT AVBL
FRYING PAN 41013 1500            57 67  270/ 16/ 19 1004.3F
WVE H/P(F/S)=  6/ 8 WND WVE H/P(F/S)=  5/ 5 SWL H/P/D(F/S/D)=  3/200/ 8

SUNST NRSH 41024 1400            51     270/ 16/ 19   N/A
CAPRS NRSH 41029 1400            52     280/ 16/ 17   N/A
EDISTO     41004 1500            56 69  270/ 19/ 23 1004.9R
WVE H/P(F/S)=  6/ 7 WND WVE H/P(F/S)=  5/ 7



..........OFFSHORE BUOYS BEYOND 100 NM OFFSHORE...........
.....IN A TRIANGLE---HAT TO BERMUDA TO BAHAMAS TO HAT.....


STATION/POSITION TIME  SKY/WX   TEMP    WIND        PRES    VSBY
                                AIR SEA DIR/SP/G
                 (UTC)          (F)     (DEG/KT/KT) (MB)    (MI)
150E HAT   41001 NOT AVBL
W BERMUDA  41048 1449            69 72  170/ 17/ 23 1011.0F
WVE H/P(F/S)=  6/ 8 WND WVE H/P(F/S)=  3/ 6 SWL H/P/D(F/S/D)=  5/300/ 8

ATLANTIC S 41049 1450            76 75  180/ 12/ 16 1016.3F
WVE H/P(F/S)=  6/11 WND WVE H/P(F/S)=  3/ 6 SWL H/P/D(F/S/D)=  5/300/11

E BAHAMAS  41046 1449            78 79  180/ 16/ 17 1016.0R
WVE H/P(F/S)=  5/10 WND WVE H/P(F/S)=  3/ 5 SWL H/P/D(F/S/D)=  3/320/10

NE BAHAMAS 41047 1417            72 76  170/  6/  8 1012.6
WVE H/P(F/S)=  5/ 9 WND WVE H/P(F/S)=  2/ 4

120E CANVRL41010 1500            65 75  230/ 25/ 29 1008.2R
WVE H/P(F/S)=  7/ 6 WND WVE H/P(F/S)=  7/ 6 SWL H/P/D(F/S/D)=  2/110/ 9


END



USA.gov is the U.S. government's official web portal to all federal, state and local government web resources and services.